カタログに戻る

STARLINK-11128

運用中通信VLEO
NORAD 60302·PAYLOAD·🇺🇸 United States

打ち上げ Jul 28, 2024 から Vandenberg Space Force Base

Loading…

次のパス (今後24時間)

TLE

最新Source: CelesTrak SupGP

元期: Sep 15, 2026, 02:02 UTC

1 60302C 24133B   26258.08520833  .00073612  00000+0  60614-3 0  2582
2 60302  53.1570 292.7308 0001283  76.4017 104.3319 15.69681707    16

AllMySatでSTARLINK-11128をリアルタイム追跡

Download on the App Store